owner,sensor,date,latitude,longitude,vertical_datum,direction_of_sea_water_velocity,sea_water_speed,upward_sea_water_velocity,qcFlag 
TABS,ioos:station:wmo:42044:1,2019-02-01T00:00:00Z,26.1914,-97.0507,2.0,163.9849873,16.99975588,-99999.0,'11111222,11111222,99999999' 
TABS,ioos:station:wmo:42044:1,2019-02-01T00:30:00Z,26.1914,-97.0507,2.0,155.7575144,23.28318062,-99999.0,'11111222,11111222,99999999' 
TABS,ioos:station:wmo:42044:1,2019-02-01T01:00:00Z,26.1914,-97.0507,2.0,160.4014159,20.86901052,-99999.0,'11111222,11111222,99999999' 
TABS,ioos:station:wmo:42044:1,2019-02-01T01:30:00Z,26.1914,-97.0507,2.0,160.3155972,24.07698071,-99999.0,'11111222,11111222,99999999' 
TABS,ioos:station:wmo:42044:1,2019-02-01T02:00:00Z,26.1914,-97.0507,2.0,169.5539546,26.52968526,-99999.0,'11111222,11111222,99999999' 
TABS,ioos:station:wmo:42044:1,2019-02-01T02:30:00Z,26.1914,-97.0507,2.0,180.2889344,25.76032803,-99999.0,'11111222,11111222,99999999' 
TABS,ioos:station:wmo:42044:1,2019-02-01T03:00:00Z,26.1914,-97.0507,2.0,186.427645,27.42238866,-99999.0,'11111222,11111222,99999999' 
TABS,ioos:station:wmo:42044:1,2019-02-01T03:30:00Z,26.1914,-97.0507,2.0,188.8267673,28.02188609,-99999.0,'11111222,11111222,99999999' 
TABS,ioos:station:wmo:42044:1,2019-02-01T04:00:00Z,26.1914,-97.0507,2.0,188.7304824,28.19672499,-99999.0,'11111222,11111222,99999999' 
TABS,ioos:station:wmo:42044:1,2019-02-01T04:30:00Z,26.1914,-97.0507,2.0,185.6129733,29.85314891,-99999.0,'11111222,11111222,99999999' 
TABS,ioos:station:wmo:42044:1,2019-02-01T05:00:00Z,26.1914,-97.0507,2.0,182.0719115,32.91152078,-99999.0,'11111222,11111222,99999999' 
TABS,ioos:station:wmo:42044:1,2019-02-01T05:30:00Z,26.1914,-97.0507,2.0,175.6358183,34.16906349,-99999.0,'11111222,11111222,99999999' 
TABS,ioos:station:wmo:42044:1,2019-02-01T06:00:00Z,26.1914,-97.0507,2.0,178.8432378,37.15756989,-99999.0,'11111222,11111222,99999999' 
TABS,ioos:station:wmo:42044:1,2019-02-01T06:30:00Z,26.1914,-97.0507,2.0,177.4974589,35.04341593,-99999.0,'11111222,11111222,99999999' 
TABS,ioos:station:wmo:42044:1,2019-02-01T07:00:00Z,26.1914,-97.0507,2.0,176.4051119,37.00280125,-99999.0,'11111222,11111222,99999999' 
TABS,ioos:station:wmo:42044:1,2019-02-01T07:30:00Z,26.1914,-97.0507,2.0,169.3276362,40.87705713,-99999.0,'11111222,11111222,99999999' 
TABS,ioos:station:wmo:42044:1,2019-02-01T08:00:00Z,26.1914,-97.0507,2.0,169.0725291,44.04866627,-99999.0,'11111222,11111222,99999999' 
TABS,ioos:station:wmo:42044:1,2019-02-01T08:30:00Z,26.1914,-97.0507,2.0,175.9681002,49.21178416,-99999.0,'11111222,11111222,99999999' 
TABS,ioos:station:wmo:42044:1,2019-02-01T09:00:00Z,26.1914,-97.0507,2.0,169.4140442,50.89620222,-99999.0,'11111222,11111222,99999999' 
TABS,ioos:station:wmo:42044:1,2019-02-01T09:30:00Z,26.1914,-97.0507,2.0,165.1198472,52.3763964,-99999.0,'11111222,11111222,99999999' 
TABS,ioos:station:wmo:42044:1,2019-02-01T10:00:00Z,26.1914,-97.0507,2.0,164.4661774,54.66679522,-99999.0,'11111222,11111222,99999999' 
TABS,ioos:station:wmo:42044:1,2019-02-01T10:30:00Z,26.1914,-97.0507,2.0,166.3378885,54.57410558,-99999.0,'11111222,11111222,99999999' 
TABS,ioos:station:wmo:42044:1,2019-02-01T11:00:00Z,26.1914,-97.0507,2.0,167.8545454,57.03663384,-99999.0,'11111222,11111222,99999999' 
TABS,ioos:station:wmo:42044:1,2019-02-01T11:30:00Z,26.1914,-97.0507,2.0,169.3645502,58.62709954,-99999.0,'11111222,11111222,99999999' 
TABS,ioos:station:wmo:42044:1,2019-02-01T12:00:00Z,26.1914,-97.0507,2.0,169.9258868,56.36904824,-99999.0,'11111222,11111222,99999999' 
TABS,ioos:station:wmo:42044:1,2019-02-01T12:30:00Z,26.1914,-97.0507,2.0,171.5842441,60.74405485,-99999.0,'11111222,11111222,99999999' 
TABS,ioos:station:wmo:42044:1,2019-02-01T13:00:00Z,26.1914,-97.0507,2.0,174.5679245,54.61525245,-99999.0,'11111222,11111222,99999999' 
TABS,ioos:station:wmo:42044:1,2019-02-01T13:30:00Z,26.1914,-97.0507,2.0,177.9083566,45.76048295,-99999.0,'11111222,11111222,99999999' 
TABS,ioos:station:wmo:42044:1,2019-02-01T14:00:00Z,26.1914,-97.0507,2.0,181.5333398,51.93860318,-99999.0,'11111222,11111222,99999999' 
TABS,ioos:station:wmo:42044:1,2019-02-01T14:30:00Z,26.1914,-97.0507,2.0,181.6735755,47.93045066,-99999.0,'11111222,11111222,99999999' 
TABS,ioos:station:wmo:42044:1,2019-02-01T15:00:00Z,26.1914,-97.0507,2.0,185.787019,52.06536757,-99999.0,'11111222,11111222,99999999' 
TABS,ioos:station:wmo:42044:1,2019-02-01T15:30:00Z,26.1914,-97.0507,2.0,187.5833403,58.11833618,-99999.0,'11111222,11111222,99999999' 
TABS,ioos:station:wmo:42044:1,2019-02-01T16:00:00Z,26.1914,-97.0507,2.0,191.356775,54.89488592,-99999.0,'11111222,11111222,99999999' 
TABS,ioos:station:wmo:42044:1,2019-02-01T16:30:00Z,26.1914,-97.0507,2.0,195.2670683,57.68586135,-99999.0,'11111222,11111222,99999999' 
TABS,ioos:station:wmo:42044:1,2019-02-01T17:00:00Z,26.1914,-97.0507,2.0,194.3209383,61.44958584,-99999.0,'11111222,11111222,99999999' 
TABS,ioos:station:wmo:42044:1,2019-02-01T17:30:00Z,26.1914,-97.0507,2.0,194.4021686,59.58251841,-99999.0,'11111222,11111222,99999999' 
TABS,ioos:station:wmo:42044:1,2019-02-01T18:00:00Z,26.1914,-97.0507,2.0,194.3398919,60.36069002,-99999.0,'11111222,11111222,99999999' 
TABS,ioos:station:wmo:42044:1,2019-02-01T18:30:00Z,26.1914,-97.0507,2.0,191.0425411,59.72585705,-99999.0,'11111222,11111222,99999999' 
TABS,ioos:station:wmo:42044:1,2019-02-01T19:00:00Z,26.1914,-97.0507,2.0,191.4491008,59.64693789,-99999.0,'11111222,11111222,99999999' 
TABS,ioos:station:wmo:42044:1,2019-02-01T19:30:00Z,26.1914,-97.0507,2.0,191.5054265,58.55669731,-99999.0,'11111222,11111222,99999999' 
TABS,ioos:station:wmo:42044:1,2019-02-01T20:00:00Z,26.1914,-97.0507,2.0,191.8104531,56.7719059,-99999.0,'11111222,11111222,99999999' 
TABS,ioos:station:wmo:42044:1,2019-02-01T20:30:00Z,26.1914,-97.0507,2.0,190.8780628,53.8883596,-99999.0,'11111222,11111222,99999999' 
TABS,ioos:station:wmo:42044:1,2019-02-01T21:00:00Z,26.1914,-97.0507,2.0,191.4452742,53.87129198,-99999.0,'11111222,11111222,99999999' 
TABS,ioos:station:wmo:42044:1,2019-02-01T21:30:00Z,26.1914,-97.0507,2.0,185.835956,50.84353745,-99999.0,'11111222,11111222,99999999' 
TABS,ioos:station:wmo:42044:1,2019-02-01T22:00:00Z,26.1914,-97.0507,2.0,188.6481791,47.68216123,-99999.0,'11111222,11111222,99999999' 
TABS,ioos:station:wmo:42044:1,2019-02-01T22:30:00Z,26.1914,-97.0507,2.0,185.7515165,48.49414501,-99999.0,'11111222,11111222,99999999' 
TABS,ioos:station:wmo:42044:1,2019-02-01T23:00:00Z,26.1914,-97.0507,2.0,186.5185087,45.71556081,-99999.0,'11111222,11111222,99999999' 
TABS,ioos:station:wmo:42044:1,2019-02-01T23:30:00Z,26.1914,-97.0507,2.0,183.3871303,46.71160991,-99999.0,'11111222,11111222,99999999' 
TABS,ioos:station:wmo:42044:1,2019-02-02T00:00:00Z,26.1914,-97.0507,2.0,182.5677063,47.31751578,-99999.0,'11111222,11111222,99999999' 
TABS,ioos:station:wmo:42044:1,2019-02-02T00:30:00Z,26.1914,-97.0507,2.0,187.2839718,48.66273523,-99999.0,'11111222,11111222,99999999' 
TABS,ioos:station:wmo:42044:1,2019-02-02T01:00:00Z,26.1914,-97.0507,2.0,186.2236571,47.87216519,-99999.0,'11111222,11111222,99999999' 
TABS,ioos:station:wmo:42044:1,2019-02-02T01:30:00Z,26.1914,-97.0507,2.0,182.8798431,45.37731592,-99999.0,'11111222,11111222,99999999' 
TABS,ioos:station:wmo:42044:1,2019-02-02T02:00:00Z,26.1914,-97.0507,2.0,183.094536,44.45483213,-99999.0,'11111222,11111222,99999999' 
TABS,ioos:station:wmo:42044:1,2019-02-02T02:30:00Z,26.1914,-97.0507,2.0,185.3921752,45.33061328,-99999.0,'11111222,11111222,99999999' 
TABS,ioos:station:wmo:42044:1,2019-02-02T03:00:00Z,26.1914,-97.0507,2.0,191.7451689,49.02652751,-99999.0,'11111222,11111222,99999999' 
TABS,ioos:station:wmo:42044:1,2019-02-02T03:30:00Z,26.1914,-97.0507,2.0,188.8626897,51.85921037,-99999.0,'11111222,11111222,99999999' 
TABS,ioos:station:wmo:42044:1,2019-02-02T04:00:00Z,26.1914,-97.0507,2.0,192.1420289,56.43248887,-99999.0,'11111222,11111222,99999999' 
TABS,ioos:station:wmo:42044:1,2019-02-02T04:30:00Z,26.1914,-97.0507,2.0,184.6582854,50.23595625,-99999.0,'11111222,11111222,99999999' 
TABS,ioos:station:wmo:42044:1,2019-02-02T05:00:00Z,26.1914,-97.0507,2.0,182.1458385,46.73277758,-99999.0,'11111222,11111222,99999999' 
TABS,ioos:station:wmo:42044:1,2019-02-02T05:30:00Z,26.1914,-97.0507,2.0,181.0560542,43.39737434,-99999.0,'11111222,11111222,99999999' 
TABS,ioos:station:wmo:42044:1,2019-02-02T06:00:00Z,26.1914,-97.0507,2.0,175.7377266,39.55939964,-99999.0,'11111222,11111222,99999999' 
TABS,ioos:station:wmo:42044:1,2019-02-02T06:30:00Z,26.1914,-97.0507,2.0,169.9446975,35.91159284,-99999.0,'11111222,11111222,99999999' 
TABS,ioos:station:wmo:42044:1,2019-02-02T07:00:00Z,26.1914,-97.0507,2.0,170.3879467,36.53286739,-99999.0,'11111222,11111222,99999999' 
TABS,ioos:station:wmo:42044:1,2019-02-02T07:30:00Z,26.1914,-97.0507,2.0,170.6190104,34.66356156,-99999.0,'11111222,11111222,99999999' 
TABS,ioos:station:wmo:42044:1,2019-02-02T08:00:00Z,26.1914,-97.0507,2.0,173.3331452,34.1106435,-99999.0,'11111222,11111222,99999999' 
TABS,ioos:station:wmo:42044:1,2019-02-02T08:30:00Z,26.1914,-97.0507,2.0,176.7361844,35.65783084,-99999.0,'11111222,11111222,99999999' 
TABS,ioos:station:wmo:42044:1,2019-02-02T09:00:00Z,26.1914,-97.0507,2.0,180.1712395,36.76016458,-99999.0,'11111222,11111222,99999999' 
TABS,ioos:station:wmo:42044:1,2019-02-02T09:30:00Z,26.1914,-97.0507,2.0,177.4433788,38.33815462,-99999.0,'11111222,11111222,99999999' 
TABS,ioos:station:wmo:42044:1,2019-02-02T10:00:00Z,26.1914,-97.0507,2.0,183.1167709,34.39087815,-99999.0,'11111222,11111222,99999999' 
TABS,ioos:station:wmo:42044:1,2019-02-02T10:30:00Z,26.1914,-97.0507,2.0,184.2910122,34.34628655,-99999.0,'11111222,11111222,99999999' 
TABS,ioos:station:wmo:42044:1,2019-02-02T11:00:00Z,26.1914,-97.0507,2.0,184.9614694,36.99864322,-99999.0,'11111222,11111222,99999999' 
TABS,ioos:station:wmo:42044:1,2019-02-02T11:30:00Z,26.1914,-97.0507,2.0,181.4051251,34.25030219,-99999.0,'11111222,11111222,99999999' 
TABS,ioos:station:wmo:42044:1,2019-02-02T12:00:00Z,26.1914,-97.0507,2.0,183.9999659,34.40381374,-99999.0,'11111222,11111222,99999999' 
TABS,ioos:station:wmo:42044:1,2019-02-02T12:30:00Z,26.1914,-97.0507,2.0,181.8579973,34.84832564,-99999.0,'11111222,11111222,99999999' 
TABS,ioos:station:wmo:42044:1,2019-02-02T13:00:00Z,26.1914,-97.0507,2.0,186.3381234,34.32984853,-99999.0,'11111222,11111222,99999999' 
TABS,ioos:station:wmo:42044:1,2019-02-02T13:30:00Z,26.1914,-97.0507,2.0,179.5696023,35.96101361,-99999.0,'11111222,11111222,99999999' 
TABS,ioos:station:wmo:42044:1,2019-02-02T14:00:00Z,26.1914,-97.0507,2.0,178.903356,37.62688932,-99999.0,'11111222,11111222,99999999' 
TABS,ioos:station:wmo:42044:1,2019-02-02T14:30:00Z,26.1914,-97.0507,2.0,175.0720506,30.73359725,-99999.0,'11111222,11111222,99999999' 
TABS,ioos:station:wmo:42044:1,2019-02-02T15:00:00Z,26.1914,-97.0507,2.0,176.9567648,34.84913916,-99999.0,'11111222,11111222,99999999' 
TABS,ioos:station:wmo:42044:1,2019-02-02T15:30:00Z,26.1914,-97.0507,2.0,174.2225654,30.79642187,-99999.0,'11111222,11111222,99999999' 
TABS,ioos:station:wmo:42044:1,2019-02-02T16:00:00Z,26.1914,-97.0507,2.0,172.6920102,35.77055912,-99999.0,'11111222,11111222,99999999' 
TABS,ioos:station:wmo:42044:1,2019-02-02T16:30:00Z,26.1914,-97.0507,2.0,170.5328439,40.55229833,-99999.0,'11111222,11111222,99999999' 
TABS,ioos:station:wmo:42044:1,2019-02-02T17:00:00Z,26.1914,-97.0507,2.0,167.1725765,43.10575136,-99999.0,'11111222,11111222,99999999' 
TABS,ioos:station:wmo:42044:1,2019-02-02T17:30:00Z,26.1914,-97.0507,2.0,165.4784974,40.67953294,-99999.0,'11111222,11111222,99999999' 
TABS,ioos:station:wmo:42044:1,2019-02-02T18:00:00Z,26.1914,-97.0507,2.0,166.8272669,45.85656987,-99999.0,'11111222,11111222,99999999' 
TABS,ioos:station:wmo:42044:1,2019-02-02T18:30:00Z,26.1914,-97.0507,2.0,161.9093425,47.34015209,-99999.0,'11111222,11111222,99999999' 
TABS,ioos:station:wmo:42044:1,2019-02-02T19:00:00Z,26.1914,-97.0507,2.0,174.7886953,37.32426824,-99999.0,'11111222,11111222,99999999' 
TABS,ioos:station:wmo:42044:1,2019-02-02T19:30:00Z,26.1914,-97.0507,2.0,165.5935254,26.2865593,-99999.0,'11111222,11111222,99999999' 
TABS,ioos:station:wmo:42044:1,2019-02-02T20:00:00Z,26.1914,-97.0507,2.0,173.2268067,25.43752346,-99999.0,'11111222,11111222,99999999' 
TABS,ioos:station:wmo:42044:1,2019-02-02T20:30:00Z,26.1914,-97.0507,2.0,174.1284564,30.5,-99999.0,'11111222,11111222,99999999' 
TABS,ioos:station:wmo:42044:1,2019-02-02T21:00:00Z,26.1914,-97.0507,2.0,171.8726136,27.86990671,-99999.0,'11111222,11111222,99999999' 
TABS,ioos:station:wmo:42044:1,2019-02-02T21:30:00Z,26.1914,-97.0507,2.0,187.8571181,43.66999542,-99999.0,'11111222,11111222,99999999' 
TABS,ioos:station:wmo:42044:1,2019-02-02T22:00:00Z,26.1914,-97.0507,2.0,188.2127898,48.86112975,-99999.0,'11111222,11111222,99999999' 
TABS,ioos:station:wmo:42044:1,2019-02-02T22:30:00Z,26.1914,-97.0507,2.0,186.5480069,48.05349103,-99999.0,'11111222,11111222,99999999' 
TABS,ioos:station:wmo:42044:1,2019-02-02T23:00:00Z,26.1914,-97.0507,2.0,183.6329241,47.18483019,-99999.0,'11111222,11111222,99999999' 
TABS,ioos:station:wmo:42044:1,2019-02-02T23:30:00Z,26.1914,-97.0507,2.0,180.7877192,47.99453823,-99999.0,'11111222,11111222,99999999' 
TABS,ioos:station:wmo:42044:1,2019-02-03T00:00:00Z,26.1914,-97.0507,2.0,180.7640258,44.9840016,-99999.0,'11111222,11111222,99999999' 
TABS,ioos:station:wmo:42044:1,2019-02-03T00:30:00Z,26.1914,-97.0507,2.0,181.7808288,44.40145043,-99999.0,'11111222,11111222,99999999' 
TABS,ioos:station:wmo:42044:1,2019-02-03T01:00:00Z,26.1914,-97.0507,2.0,179.847702,41.44014599,-99999.0,'11111222,11111222,99999999' 
TABS,ioos:station:wmo:42044:1,2019-02-03T01:30:00Z,26.1914,-97.0507,2.0,182.9257477,42.31516513,-99999.0,'11111222,11111222,99999999' 
TABS,ioos:station:wmo:42044:1,2019-02-03T02:00:00Z,26.1914,-97.0507,2.0,180.4341576,40.89117509,-99999.0,'11111222,11111222,99999999' 
TABS,ioos:station:wmo:42044:1,2019-02-03T02:30:00Z,26.1914,-97.0507,2.0,186.3414825,41.73538666,-99999.0,'11111222,11111222,99999999' 
TABS,ioos:station:wmo:42044:1,2019-02-03T03:00:00Z,26.1914,-97.0507,2.0,181.2279703,40.58932495,-99999.0,'11111222,11111222,99999999' 
TABS,ioos:station:wmo:42044:1,2019-02-03T03:30:00Z,26.1914,-97.0507,2.0,178.8568859,40.10797926,-99999.0,'11111222,11111222,99999999' 
TABS,ioos:station:wmo:42044:1,2019-02-03T04:00:00Z,26.1914,-97.0507,2.0,172.4601288,35.81968872,-99999.0,'11111222,11111222,99999999' 
TABS,ioos:station:wmo:42044:1,2019-02-03T04:30:00Z,26.1914,-97.0507,2.0,171.7551819,33.96099233,-99999.0,'11111222,11111222,99999999' 
TABS,ioos:station:wmo:42044:1,2019-02-03T05:00:00Z,26.1914,-97.0507,2.0,172.9548365,31.9613016,-99999.0,'11111222,11111222,99999999' 
TABS,ioos:station:wmo:42044:1,2019-02-03T05:30:00Z,26.1914,-97.0507,2.0,172.0549223,27.9987464,-99999.0,'11111222,11111222,99999999' 
TABS,ioos:station:wmo:42044:1,2019-02-03T06:00:00Z,26.1914,-97.0507,2.0,170.5608357,24.20775289,-99999.0,'11111222,11111222,99999999' 
TABS,ioos:station:wmo:42044:1,2019-02-03T06:30:00Z,26.1914,-97.0507,2.0,165.7777809,23.93354132,-99999.0,'11111222,11111222,99999999' 
TABS,ioos:station:wmo:42044:1,2019-02-03T07:00:00Z,26.1914,-97.0507,2.0,164.2542225,22.84732151,-99999.0,'11111222,11111222,99999999' 
TABS,ioos:station:wmo:42044:1,2019-02-03T07:30:00Z,26.1914,-97.0507,2.0,169.3894173,22.81000658,-99999.0,'11111222,11111222,99999999' 
TABS,ioos:station:wmo:42044:1,2019-02-03T08:00:00Z,26.1914,-97.0507,2.0,173.4500805,21.74190424,-99999.0,'11111222,11111222,99999999' 
TABS,ioos:station:wmo:42044:1,2019-02-03T08:30:00Z,26.1914,-97.0507,2.0,168.4284866,22.78304852,-99999.0,'11111222,11111222,99999999' 
TABS,ioos:station:wmo:42044:1,2019-02-03T09:00:00Z,26.1914,-97.0507,2.0,165.8538289,22.7911145,-99999.0,'11111222,11111222,99999999' 
TABS,ioos:station:wmo:42044:1,2019-02-03T09:30:00Z,26.1914,-97.0507,2.0,171.9605075,22.30924696,-99999.0,'11111222,11111222,99999999' 
TABS,ioos:station:wmo:42044:1,2019-02-03T10:00:00Z,26.1914,-97.0507,2.0,173.0782327,21.65784154,-99999.0,'11111222,11111222,99999999' 
TABS,ioos:station:wmo:42044:1,2019-02-03T10:30:00Z,26.1914,-97.0507,2.0,184.0187694,20.83122656,-99999.0,'11111222,11111222,99999999' 
TABS,ioos:station:wmo:42044:1,2019-02-03T15:30:00Z,26.1914,-97.0507,2.0,213.5713126,22.80377381,-99999.0,'11111222,11111222,99999999' 
TABS,ioos:station:wmo:42044:1,2019-02-03T16:00:00Z,26.1914,-97.0507,2.0,216.0733894,22.74019569,-99999.0,'11111222,11111222,99999999' 
TABS,ioos:station:wmo:42044:1,2019-02-03T16:30:00Z,26.1914,-97.0507,2.0,217.7508291,20.28639938,-99999.0,'11111222,11111222,99999999' 
TABS,ioos:station:wmo:42044:1,2019-02-03T17:00:00Z,26.1914,-97.0507,2.0,220.1950522,20.51454362,-99999.0,'11111222,11111222,99999999' 
TABS,ioos:station:wmo:42044:1,2019-02-03T17:30:00Z,26.1914,-97.0507,2.0,215.3690266,19.7807836,-99999.0,'11111222,11111222,99999999' 
TABS,ioos:station:wmo:42044:1,2019-02-03T18:00:00Z,26.1914,-97.0507,2.0,213.8988524,17.48149307,-99999.0,'11111222,11111222,99999999' 
TABS,ioos:station:wmo:42044:1,2019-02-03T18:30:00Z,26.1914,-97.0507,2.0,201.2429207,16.20083023,-99999.0,'11111222,11111222,99999999' 
TABS,ioos:station:wmo:42044:1,2019-02-03T19:00:00Z,26.1914,-97.0507,2.0,197.8048156,14.09512327,-99999.0,'11111222,11111222,99999999' 
TABS,ioos:station:wmo:42044:1,2019-02-03T19:30:00Z,26.1914,-97.0507,2.0,203.1060624,13.04662408,-99999.0,'11111222,11111222,99999999' 
TABS,ioos:station:wmo:42044:1,2019-02-03T20:00:00Z,26.1914,-97.0507,2.0,211.3568014,11.99146363,-99999.0,'11111222,11111222,99999999' 
TABS,ioos:station:wmo:42044:1,2019-02-03T20:30:00Z,26.1914,-97.0507,2.0,206.8959636,10.83169423,-99999.0,'11111222,11111222,99999999' 
TABS,ioos:station:wmo:42044:1,2019-02-03T21:00:00Z,26.1914,-97.0507,2.0,210.4895148,10.78076992,-99999.0,'11111222,11111222,99999999' 
TABS,ioos:station:wmo:42044:1,2019-02-03T21:30:00Z,26.1914,-97.0507,2.0,198.0230675,9.243576148,-99999.0,'11133222,11111222,99999999' 
TABS,ioos:station:wmo:42044:1,2019-02-03T22:00:00Z,26.1914,-97.0507,2.0,182.1878869,7.595538164,-99999.0,'11133222,11111222,99999999' 
TABS,ioos:station:wmo:42044:1,2019-02-03T22:30:00Z,26.1914,-97.0507,2.0,179.9268015,7.850006369,-99999.0,'11133222,11111222,99999999' 
TABS,ioos:station:wmo:42044:1,2019-02-03T23:00:00Z,26.1914,-97.0507,2.0,175.9315587,7.047758509,-99999.0,'11133222,11111222,99999999' 
TABS,ioos:station:wmo:42044:1,2019-02-06T00:00:00Z,26.1914,-97.0507,2.0,62.26851872,5.93128148,-99999.0,'11133222,11111222,99999999' 
TABS,ioos:station:wmo:42044:1,2019-02-06T00:30:00Z,26.1914,-97.0507,2.0,74.53881841,5.36412155,-99999.0,'11133222,11111222,99999999' 
TABS,ioos:station:wmo:42044:1,2019-02-06T01:00:00Z,26.1914,-97.0507,2.0,79.85340107,5.506114783,-99999.0,'11133222,11111222,99999999' 
TABS,ioos:station:wmo:42044:1,2019-02-06T01:30:00Z,26.1914,-97.0507,2.0,78.81693057,9.745034633,-99999.0,'11133222,11111222,99999999' 
TABS,ioos:station:wmo:42044:1,2019-02-06T02:00:00Z,26.1914,-97.0507,2.0,73.43530801,7.751709489,-99999.0,'11133222,11111222,99999999' 
TABS,ioos:station:wmo:42044:1,2019-02-06T02:30:00Z,26.1914,-97.0507,2.0,83.44383896,8.495557663,-99999.0,'11133222,11111222,99999999' 
TABS,ioos:station:wmo:42044:1,2019-02-06T03:00:00Z,26.1914,-97.0507,2.0,77.93708697,8.804413666,-99999.0,'11133222,11111222,99999999' 
 
DISCLAIMER: The Gulf of Mexico Coastal and Ocean Observing (GCOOS) Data Portal aggregates data from the regional data providers for the convenience of all data users. Data published on this website should not be used for navigation or certain other uses as we cannot guarantee data accuracy or availability. The data and delivery services are provided 'as is' without warranty of any kind. Data Source: Gulf of Mexico Coastal Ocean Observing System Data Portal (http://data.gcoos.org/) 
